Tracking 28794 objects as of 19-Apr-2024
HD Live streaming from Space Station
objects crossing your sky now

DRUMS TARGET-1

Track DRUMS TARGET-1 now!
10-day predictions


NORAD ID: 55685
Int'l Code: 2021-102M
Perigee: 487.2 km
Apogee: 506.7 km
Inclination: 97.4 °
Period: 94.4 minutes
Semi major axis: 6867 km
RCS: Unknown
Launch date: November 9, 2021
Source: Japan (JPN)
Launch site: KAGOSHIMA SPACE CENTER UNIVERSITY OF TOKYO (KSCUT)
Your satellite tracking list
Your tracking list is empty




NASA's NSSDC Master Catalog

Two Line Element Set (TLE):
1 55685U 21102M   24110.37797006  .00068862  00000-0  27047-2 0  9994
2 55685  97.4348 163.7610 0014195  81.0647 279.2197 15.25340429 64435
Source of the keplerian elements: AFSPC